User: anonymous   Login
Location: Newark
(58.9986°N, 38.5006°E)
Time: 11:11:52
(UTC+00:00)
Language:

Altair - Orbit

View from above orbital plane
View from above orbital plane
View from above satellite
View from above satellite

Ground track
Ground track

The orbit data is extracted from the following two-line orbital elements,

1 00050U 60009B   21107.66234373 -.00000089  00000-0 -30728-4 0  9998
2 00050  47.2304 257.1072 0114037 152.3443 208.3471 12.20116606707362
Epoch (UTC): 17 April 2021 15:53:46
Eccentricity: 0.0114037
inclination: 47.2304°
perigee height: 1501 km
apogee height: 1683 km
right ascension of ascending node: 257.1072°
argument of perigee: 152.3443°
revolutions per day: 12.20116606
mean anomaly at epoch: 208.3471°
orbit number at epoch: 70736

The dashed part of the orbit path shows where the satellite is in the earth's shadow,  

DLR